STARLINK-6249, 56541

Orbit data source: Space-Track

STARLINK-6249, 56541 is a payload satellite owned by SpaceX/Seattle (US) in LEO that was launched on Sun, 14 May 2023 UTC via an FALCON 9 launch vehicle from the Air Force Eastern Test Range (AFETR). Payload-class satellites include a variety of spacecraft equipped with specific instruments for various scientific and technological missions. These include communications satellites like Starlink; space stations such as the ISS; scientific satellites like the Hubble; Earth observation satellites from companies like Planet Labs, Umbra, and HawkEye 360; GPS; miniature CubeSats for education and research; and military/defense satellites.

Loading next visibility...
Identifier
56541, 2023-065AQ
Orbit
LEO
Country
Flag of USUS
Related business
Manufacturer
SpaceX/Seattle
Mission
Operational Commercial Communications
Bus & Motor
STARLINK, Unknown motor
Mass
305 kg wet, ~290 kg dry
Launch date (UTC)
2023-05-14 (3 years ago)
Launch vehicle
FALCON 9
Launch site
Air Force Eastern Test Range (AFETR)
Object type
Payload
Rocket body
Debris
Shape & HBR
Box + 1 Pan, 10.1 m
Radar Cross Section
11.087 m², Large (>1 m²)

Expand to show TLE details & history
Last TLE update: 3 days ago

TLE from 3 days ago
0 STARLINK-6249
1 56541U 23065AQ  26170.52568664 -.00001393  00000-0 -41108-4 0  9991
2 56541  43.0045   8.7268 0001794 260.8758  99.1891 15.27577034172049
Epoch: 2026-06-19T12:36Z
TLE epoch observation values (Epoch: 2026-06-19T12:36:59.325Z)
Latitude
-0.00001°
Longitude
-88.27381°
Altitude
483.031 km
Speed
7.626 km/s
True Right ascension
00h 34m 54s
True Declination
0° 00' 00"
Sunlit
Object was in daylight at epoch
Visualization orbit readout
Latitude
Unknown
Longitude
Unknown
Altitude
Unknown
Speed
Unknown
Apparent Right ascension
Unknown
Apparent Declination
Unknown
Sunlit
N/A
Visualization observer readout
Local Sidereal Time
21:23:23
Azimuth
Unknown
Elevation
Unknown
Doppler factor
Unknown
Orbital elements
Apogee altitude
486.234 km
Perigee altitude
483.771 km
Semi-major axis
6,863.139 km
Eccentricity
0.00018
Inclination
43.0045°
RAAN
8.7268°
Arg. of periapsis
260.8758°
True anomaly
99.20939°
Mean anomaly
99.1891°
Eccentric anomaly
99.19925°
Mean motion
3.81732 °/min
Orbital period
94.31 mins
BSTAR
-0.000041108
Loading maneuver chart data...
Computing Atmospheric mass density...
Loading historical data...
Loading historical data...
Loading historical data...
Loading historical data...
Loading historical data...
Loading historical data...
Loading historical data...

Documentation

Showing up to 5 results
|